SCP
0 0 0 0 0 0 0 0 0 0 0 0 0 0 0 0 0 0 0 0 0 0 0 0 0 0 0 0 0 0 0 0 0 0 0 0 0 0 0 0 0 0 0
0 0 0 0 0 0 0 0 0 0 0 0 0 0 0 0 0 0 0 0 0 0 0 0 0 0 0 0 0 0 0 0 0 0 0 0 0 0 0 0 0 0 0
0 0 0 0 0 0 0 0 0 0 0 0 0 0 0 0 0 0 0 0 0 0 0 0 0 0 0 0 0 0 0 0 0 0 0 0 0 0 0 0 0 0 0
0 0 0 0 0 0 0 0 0 0 0 0 0 0 0 0 0 0 0 0 0 0 0 0 0 0 0 0 0 0 0 0 0 0 0 0 0 0 0 0 0 0 0
0 0 0 0 0 0 0 0 0 0 0 0 0 0 0 0 0 0 0 0 0 0 0 0 0 0 0 0 0 0 0 0 0 0 0 0 0 0 0 0 0 0 0
0 0 0 0 0 0 0 0 0 0 0 0 0 0 0 0 0 0 0 0 0 0 0 0 0 0 0 0 0 0 0 0 0 0 0 0 0 0 0 0 0 0 0
0 0 0 0 0 0 0 0 0 0 0 0 0 0 0 0 0 0 0 0 0 0 0 0 0 0 0 0 0 0 0 0 0 0 0 0 0 0 0 0 0 0 0
0 0 0 0 0 0 0 0 0 0 0 0 0 0 0 0 0 0 0 0 0 0 0 0 0 0 0 0 0 0 0 0 0 0 0 0 0 0 0 0 0 0 0
0 0 0 0 0 0 0 0 0 0 0 0 0 0 0 0 0 0 0 0 0 0 0 0 0 0 0 0 0 0 0 0 0 0 0 0 0 0 0 0 0 0 0
0 0 0 0 0 0 0 0 0 0 0 0 0 0 0 0 0 0 0 0 0 0 0 0 0 0 0 0 0 0 0 0 0 0 0 0 0 0 0 0 0 0 0
0 0 0 0 0 0 0 0 0 0 0 0 0 0 0 0 0 0 0 0 0 0 0 0 0 0 0 0 0 0 0 0 0 0 0 0 0 0 0 0 0 0 0
0 0 0 0 0 0 0 0 0 0 0 0 0 0 0 0 0 0 0 0 0 0 0 0 0 0 -0 -0 0 0 0 0 0 0 0 0 0 0 0 0 0 0 0
0 0 0 0 0 0 0 0 0 0 0 0 0 0 0 0 0 0 0 0 0 0 0 0 0 0 0 -0 -0 0 0 0 0 0 0 0 0 0 0 0 0 0 0
0 0 0 0 0 0 0 0 0 0 0 0 0 0 0 0 0 0 0 0 0 0 0 0 0 0 0 0 0 0 -0 0 0 0 0 0 0 0 0 0 0 0 0
0 0 0 0 0 0 0 0 0 0 0 0 0 0 0 0 0 0 0 0 0 0 0 0 0 0 0 0 0 0 0 -0 -0 -0 0 0 0 0 0 0 0 0 0
0 0 0 0 0 0 0 0 0 0 0 0 0 0 0 0 0 0 0 0 0 0 0 0 0 0 0 0 0 0 0 0 -0 -0 -0 0 0 0 0 0 0 0 0
0 0 0 0 0 0 0 0 0 0 0 0 0 0 0 0 0 0 0 0 0 0 0 0 0 0 0 0 0 0 0 0 0 -0 -0 -0 0 0 0 0 0 0 0
0 0 0 0 0 0 0 0 0 0 0 0 0 0 0 0 0 0 0 0 0 0 0 0 0 0 0 0 0 0 0 0 0 -0 -0 0 0 0 0 0 0 0 0
0 0 0 0 0 0 0 0 0 0 0 0 0 0 0 0 0 0 0 0 0 0 0 0 0 0 0 0 0 0 0 0 0 -0 -0 -0 0 0 0 0 0 0 0
0 0 0 0 0 0 0 0 0 0 0 0 0 0 0 0 0 0 0 0 0 0 0 0 0 0 0 0 0 0 0 0 0 0 0 -0 0 0 0 0 0 0 0
0 0 0 0 0 0 0 0 0 0 0 0 0 0 0 0 0 0 0 0 0 0 0 0 0 0 0 0 0 0 0 0 0 0 0 0 0 0 0 0 0 0 0
0 0 0 0 0 0 0 0 0 0 0 0 0 0 0 0 0 0 0 0 0 0 0 0 0 0 0 0 0 0 0 0 0 0 0 0 0 0 0 0 0 0 0
0 0 0 0 0 0 0 0 0 0 0 0 0 0 0 0 0 0 0 0 0 0 0 0 0 0 0 0 0 0 0 0 0 0 0 0 0 0 0 0 0 0 0
0 0 0 0 0 0 0 0 0 0 0 0 0 0 0 0 0 0 0 0 0 0 0 0 0 0 0 0 0 0 0 0 0 0 0 0 0 -0 0 0 0 0 0
0 0 0 0 0 0 0 0 0 0 0 0 0 0 0 0 0 0 0 0 0 0 0 0 0 0 0 0 0 0 0 0 0 0 0 0 0 -0 -0 0 0 0 0
0 0 0 0 0 0 0 0 0 0 0 0 0 0 0 0 0 0 0 0 0 0 0 0 0 0 0 0 0 0 0 0 0 0 0 0 0 -0 -0 0 0 0 0
Wind_Speed_500mb
25 18 15 12 8 5 6 9 7 8 5 8 10 10 9 10 9 12 14 13 14 16 19 22 23 22 23 25 26 26 26 27 20 23 25 21 31 37 35 36 34 31 31
21 20 18 17 13 10 7 7 11 6 7 9 10 10 10 10 9 11 14 16 19 21 23 24 26 27 29 29 29 31 33 31 33 31 29 33 32 31 38 39 42 43 38
26 23 23 19 14 13 14 14 8 6 6 9 8 7 8 7 8 10 12 16 18 21 23 26 29 30 32 33 35 35 36 37 35 35 35 37 29 24 24 35 43 46 45
25 21 19 15 15 11 8 6 6 1 2 2 3 3 5 5 6 8 12 15 18 21 24 28 31 31 32 33 31 32 33 29 31 36 38 41 39 39 38 30 23 36 44
25 22 20 17 18 13 7 4 1 5 5 5 3 4 5 5 7 8 10 14 19 23 27 30 33 34 34 34 34 32 36 38 37 38 38 36 36 38 39 44 38 33 25
26 23 21 18 14 11 7 4 2 7 7 9 9 8 8 7 7 7 12 16 23 29 35 38 39 39 39 39 36 36 36 40 42 42 45 43 42 43 46 49 55 54 53
27 22 23 21 18 14 13 11 7 9 10 12 11 11 9 5 6 12 14 19 27 37 40 42 43 43 43 43 41 41 41 40 42 44 46 49 43 43 47 48 50 54 65
30 28 25 24 20 16 13 9 8 7 13 10 8 10 10 10 11 23 17 21 37 40 42 43 42 45 46 48 48 45 44 45 50 52 53 53 52 54 50 49 48 50 53
35 31 27 22 18 12 9 7 6 5 6 8 7 4 3 4 18 10 14 27 36 40 41 42 44 48 50 49 50 52 54 57 60 64 65 66 66 63 61 60 59 53 54
36 30 24 19 16 12 7 5 7 8 10 8 8 11 11 11 8 11 21 31 37 41 42 44 47 51 52 54 55 57 62 65 67 70 71 70 72 71 69 65 61 59 56
35 29 23 18 13 8 5 8 11 12 13 17 18 16 15 16 19 25 28 46 42 40 43 45 47 48 53 58 65 71 74 72 72 72 74 75 72 73 71 65 65 62 58
37 31 24 16 10 6 6 8 12 14 18 19 18 17 17 18 20 24 35 45 49 49 45 46 51 56 61 64 66 71 75 81 84 81 78 78 76 73 71 66 60 61 59
39 32 23 17 10 5 3 7 10 13 16 17 18 19 19 19 21 25 30 39 50 54 54 52 50 55 63 70 74 79 79 79 82 87 87 80 78 73 71 67 63 61 61
34 29 23 17 12 6 1 4 7 10 12 15 17 18 18 18 20 24 28 36 49 57 60 60 59 66 68 70 74 81 86 86 83 82 83 85 78 73 63 59 58 58 59
33 28 23 18 12 7 3 0 4 8 10 13 13 14 16 18 22 26 29 34 39 45 63 60 67 71 74 77 79 84 89 91 89 82 78 75 72 64 65 62 61 60 60
35 30 26 20 15 11 8 4 3 6 9 10 11 13 17 22 25 28 31 34 37 43 50 67 71 73 77 80 85 87 87 87 86 86 81 74 65 62 62 62 59 58 58
37 33 28 24 20 17 14 10 4 5 8 10 12 15 19 23 26 30 34 37 40 44 57 72 71 76 79 82 87 89 88 87 87 84 84 70 65 63 61 61 58 57 56
39 36 32 28 25 22 19 14 8 6 8 11 14 17 21 25 29 34 38 41 44 48 56 68 75 77 81 84 89 95 96 94 94 90 85 72 70 65 61 61 61 60 61
45 41 37 33 30 27 24 19 14 12 14 15 18 20 23 27 32 37 42 46 48 52 55 64 74 78 81 83 91 95 98 97 95 93 90 81 70 64 64 64 61 59 61
49 46 41 39 36 33 29 26 20 19 22 23 24 25 28 32 36 40 45 48 51 55 58 63 70 77 79 83 88 91 102 94 98 96 95 77 71 71 73 69 59 58 57
51 48 46 45 42 40 36 31 26 27 30 30 31 33 34 36 40 43 47 50 53 58 60 62 69 72 76 85 88 88 86 91 99 99 97 85 93 86 76 65 65 54 51
55 54 53 49 47 42 41 34 33 37 37 38 38 38 39 42 44 46 49 53 55 58 59 61 63 63 76 81 81 78 78 96 103 95 100 102 86 80 73 69 58 54 53
59 58 56 54 51 47 44 39 41 43 44 43 44 44 46 47 48 49 52 55 56 56 55 50 58 63 74 72 68 83 86 87 89 94 89 92 84 76 78 68 59 60 59
61 58 58 58 54 49 45 47 47 48 49 48 49 50 52 52 51 53 57 61 60 59 56 55 58 65 66 59 66 72 76 80 84 84 79 83 77 73 72 77 68 53 46
55 63 63 60 59 49 51 50 51 54 53 53 53 54 56 56 54 57 62 63 64 63 59 57 61 65 64 62 62 67 68 72 85 88 71 61 84 87 82 79 61 37 47
61 66 61 60 55 52 54 54 55 57 57 57 57 59 58 59 60 60 62 62 66 65 61 67 72 70 62 59 57 56 59 64 68 85 57 74 82 76 64 64 65 76 66
Wind_Direction_500mb
213 210 200 180 190 277 307 318 321 316 330 346 353 5 7 13 5 359 359 357 357 353 353 352 346 345 341 340 330 318 313 301 282 293 301 315 322 322 319 321 327 329 317
205 202 201 214 231 275 260 257 289 271 314 334 335 343 348 347 335 337 339 347 348 349 350 350 347 347 345 345 346 353 352 329 320 313 294 286 309 315 311 310 315 315 317
218 219 225 229 223 227 253 252 253 307 347 351 359 12 17 10 351 353 0 6 3 359 357 353 348 348 345 341 339 345 1 356 350 341 304 289 282 280 317 301 307 306 308
217 223 217 219 223 223 200 229 275 296 77 53 11 6 355 337 348 351 356 357 358 357 356 358 354 352 349 348 348 343 353 347 336 340 337 303 287 274 267 286 302 296 297
203 204 203 204 189 195 203 190 113 66 55 73 92 84 74 66 60 40 27 17 14 5 0 356 350 345 343 342 344 346 358 3 357 345 329 333 321 296 269 273 281 300 302
199 198 199 191 190 197 182 159 137 97 95 96 109 112 104 80 57 23 12 2 0 352 348 345 342 341 338 336 334 334 334 359 356 352 351 344 318 300 288 269 275 271 273
195 194 187 180 173 175 165 144 110 81 96 100 118 120 125 110 1 343 334 335 342 347 347 346 347 344 343 340 338 334 329 330 347 342 341 338 324 317 299 288 284 276 266
185 176 171 166 163 169 156 141 125 109 103 118 167 186 186 262 297 311 309 335 344 347 348 351 348 348 347 346 343 339 332 328 325 324 317 309 308 310 310 311 294 288 284
171 168 167 168 163 158 152 131 96 68 66 79 72 113 191 214 313 277 298 331 341 349 353 353 351 351 351 350 346 341 336 331 326 322 318 313 308 305 302 302 302 300 296
169 169 170 165 161 153 132 105 64 37 33 38 39 37 23 4 354 310 318 333 350 353 355 355 353 353 351 349 346 342 339 335 330 324 320 316 312 309 304 302 304 301 302
170 169 168 164 161 140 106 51 36 32 32 30 30 34 19 4 348 338 332 334 339 351 353 354 352 351 347 344 342 339 337 334 331 327 322 318 313 309 306 308 305 303 305
173 173 171 167 155 127 68 40 28 21 17 13 18 17 12 5 350 344 334 332 336 343 348 349 347 347 345 343 341 337 335 333 330 327 325 321 316 312 307 305 310 307 304
179 176 173 172 168 159 76 26 21 9 12 7 3 359 357 350 342 339 333 333 332 334 339 342 343 342 342 340 338 336 334 331 328 326 324 322 318 313 309 309 309 309 307
182 181 180 181 183 174 93 32 16 2 6 4 358 354 346 342 338 333 332 331 332 329 330 337 337 338 338 336 336 333 331 330 328 327 324 322 319 314 316 312 307 304 304
189 186 188 193 188 196 201 266 348 355 2 0 349 342 334 335 333 327 326 327 328 322 322 329 329 331 332 333 333 332 330 328 328 327 324 321 319 318 315 313 308 305 301
195 197 199 197 204 207 211 225 305 348 351 354 345 342 336 331 321 318 318 319 319 315 311 316 322 324 327 328 328 328 328 327 326 326 325 323 320 317 316 314 312 307 303
204 207 206 206 209 212 215 224 241 329 336 342 342 339 334 323 316 313 313 311 310 309 307 309 315 319 321 322 323 324 327 326 326 325 325 324 318 315 313 311 309 307 304
211 212 212 213 217 217 221 225 238 294 307 318 331 334 329 323 316 314 310 309 307 306 306 307 311 315 316 320 323 326 328 328 329 328 326 318 318 313 311 310 305 302 301
214 214 215 220 222 224 228 232 245 263 282 300 313 314 314 320 321 316 310 308 306 305 305 304 306 311 315 321 324 327 329 327 326 326 325 323 317 313 311 311 304 300 298
217 217 219 222 223 227 234 241 249 267 274 290 294 297 304 311 317 314 310 306 303 302 302 303 305 310 315 324 327 325 324 325 324 326 325 320 313 310 309 309 305 302 301
220 221 223 224 226 230 239 245 257 268 272 278 282 289 294 303 307 307 305 303 302 303 303 304 304 312 318 322 324 323 322 323 321 321 319 319 318 317 319 312 315 312 309
222 224 227 228 231 238 242 250 264 267 273 277 281 284 289 294 298 301 302 301 300 300 300 302 305 309 313 318 322 322 315 317 320 325 322 319 322 320 319 319 312 306 304
229 230 233 235 235 240 245 258 264 266 274 278 281 283 284 287 292 297 299 297 297 296 294 294 296 304 313 319 318 313 316 315 315 320 321 320 322 312 314 311 306 305 304
234 237 242 240 242 243 251 262 264 270 273 278 279 280 282 286 292 297 299 298 298 294 295 300 302 306 312 309 306 310 310 312 311 319 327 314 327 321 313 310 314 314 309
240 250 244 243 245 248 257 263 266 272 276 278 278 280 281 285 293 293 294 296 297 296 299 297 292 297 304 308 309 308 313 315 319 322 331 325 324 320 320 320 327 321 310
248 246 247 247 248 252 256 261 265 270 275 278 279 281 284 289 291 289 290 293 294 297 296 292 293 304 306 308 308 307 313 317 321 321 321 323 323 323 320 321 313 318 320
Wind_Speed_850mb
25 18 15 12 8 5 6 9 7 8 5 8 10 10 9 10 9 12 14 13 14 16 19 22 23 22 23 25 26 26 26 27 20 23 25 21 31 37 35 36 34 31 31
21 20 18 17 13 10 7 7 11 6 7 9 10 10 10 10 9 11 14 16 19 21 23 24 26 27 29 29 29 31 33 31 33 31 29 33 32 31 38 39 42 43 38
26 23 23 19 14 13 14 14 8 6 6 9 8 7 8 7 8 10 12 16 18 21 23 26 29 30 32 33 35 35 36 37 35 35 35 37 29 24 24 35 43 46 45
25 21 19 15 15 11 8 6 6 1 2 2 3 3 5 5 6 8 12 15 18 21 24 28 31 31 32 33 31 32 33 29 31 36 38 41 39 39 38 30 23 36 44
25 22 20 17 18 13 7 4 1 5 5 5 3 4 5 5 7 8 10 14 19 23 27 30 33 34 34 34 34 32 36 38 37 38 38 36 36 38 39 44 38 33 25
26 23 21 18 14 11 7 4 2 7 7 9 9 8 8 7 7 7 12 16 23 29 35 38 39 39 39 39 36 36 36 40 42 42 45 43 42 43 46 49 55 54 53
27 22 23 21 18 14 13 11 7 9 10 12 11 11 9 5 6 12 14 19 27 37 40 42 43 43 43 43 41 41 41 40 42 44 46 49 43 43 47 48 50 54 65
30 28 25 24 20 16 13 9 8 7 13 10 8 10 10 10 11 23 17 21 37 40 42 43 42 45 46 48 48 45 44 45 50 52 53 53 52 54 50 49 48 50 53
35 31 27 22 18 12 9 7 6 5 6 8 7 4 3 4 18 10 14 27 36 40 41 42 44 48 50 49 50 52 54 57 60 64 65 66 66 63 61 60 59 53 54
36 30 24 19 16 12 7 5 7 8 10 8 8 11 11 11 8 11 21 31 37 41 42 44 47 51 52 54 55 57 62 65 67 70 71 70 72 71 69 65 61 59 56
35 29 23 18 13 8 5 8 11 12 13 17 18 16 15 16 19 25 28 46 42 40 43 45 47 48 53 58 65 71 74 72 72 72 74 75 72 73 71 65 65 62 58
37 31 24 16 10 6 6 8 12 14 18 19 18 17 17 18 20 24 35 45 49 49 45 46 51 56 61 64 66 71 75 81 84 81 78 78 76 73 71 66 60 61 59
39 32 23 17 10 5 3 7 10 13 16 17 18 19 19 19 21 25 30 39 50 54 54 52 50 55 63 70 74 79 79 79 82 87 87 80 78 73 71 67 63 61 61
34 29 23 17 12 6 1 4 7 10 12 15 17 18 18 18 20 24 28 36 49 57 60 60 59 66 68 70 74 81 86 86 83 82 83 85 78 73 63 59 58 58 59
33 28 23 18 12 7 3 0 4 8 10 13 13 14 16 18 22 26 29 34 39 45 63 60 67 71 74 77 79 84 89 91 89 82 78 75 72 64 65 62 61 60 60
35 30 26 20 15 11 8 4 3 6 9 10 11 13 17 22 25 28 31 34 37 43 50 67 71 73 77 80 85 87 87 87 86 86 81 74 65 62 62 62 59 58 58
37 33 28 24 20 17 14 10 4 5 8 10 12 15 19 23 26 30 34 37 40 44 57 72 71 76 79 82 87 89 88 87 87 84 84 70 65 63 61 61 58 57 56
39 36 32 28 25 22 19 14 8 6 8 11 14 17 21 25 29 34 38 41 44 48 56 68 75 77 81 84 89 95 96 94 94 90 85 72 70 65 61 61 61 60 61
45 41 37 33 30 27 24 19 14 12 14 15 18 20 23 27 32 37 42 46 48 52 55 64 74 78 81 83 91 95 98 97 95 93 90 81 70 64 64 64 61 59 61
49 46 41 39 36 33 29 26 20 19 22 23 24 25 28 32 36 40 45 48 51 55 58 63 70 77 79 83 88 91 102 94 98 96 95 77 71 71 73 69 59 58 57
51 48 46 45 42 40 36 31 26 27 30 30 31 33 34 36 40 43 47 50 53 58 60 62 69 72 76 85 88 88 86 91 99 99 97 85 93 86 76 65 65 54 51
55 54 53 49 47 42 41 34 33 37 37 38 38 38 39 42 44 46 49 53 55 58 59 61 63 63 76 81 81 78 78 96 103 95 100 102 86 80 73 69 58 54 53
59 58 56 54 51 47 44 39 41 43 44 43 44 44 46 47 48 49 52 55 56 56 55 50 58 63 74 72 68 83 86 87 89 94 89 92 84 76 78 68 59 60 59
61 58 58 58 54 49 45 47 47 48 49 48 49 50 52 52 51 53 57 61 60 59 56 55 58 65 66 59 66 72 76 80 84 84 79 83 77 73 72 77 68 53 46
55 63 63 60 59 49 51 50 51 54 53 53 53 54 56 56 54 57 62 63 64 63 59 57 61 65 64 62 62 67 68 72 85 88 71 61 84 87 82 79 61 37 47
61 66 61 60 55 52 54 54 55 57 57 57 57 59 58 59 60 60 62 62 66 65 61 67 72 70 62 59 57 56 59 64 68 85 57 74 82 76 64 64 65 76 66
Wind_Direction_850mb
213 210 200 180 190 277 307 318 321 316 330 346 353 5 7 13 5 359 359 357 357 353 353 352 346 345 341 340 330 318 313 301 282 293 301 315 322 322 319 321 327 329 317
205 202 201 214 231 275 260 257 289 271 314 334 335 343 348 347 335 337 339 347 348 349 350 350 347 347 345 345 346 353 352 329 320 313 294 286 309 315 311 310 315 315 317
218 219 225 229 223 227 253 252 253 307 347 351 359 12 17 10 351 353 0 6 3 359 357 353 348 348 345 341 339 345 1 356 350 341 304 289 282 280 317 301 307 306 308
217 223 217 219 223 223 200 229 275 296 77 53 11 6 355 337 348 351 356 357 358 357 356 358 354 352 349 348 348 343 353 347 336 340 337 303 287 274 267 286 302 296 297
203 204 203 204 189 195 203 190 113 66 55 73 92 84 74 66 60 40 27 17 14 5 0 356 350 345 343 342 344 346 358 3 357 345 329 333 321 296 269 273 281 300 302
199 198 199 191 190 197 182 159 137 97 95 96 109 112 104 80 57 23 12 2 0 352 348 345 342 341 338 336 334 334 334 359 356 352 351 344 318 300 288 269 275 271 273
195 194 187 180 173 175 165 144 110 81 96 100 118 120 125 110 1 343 334 335 342 347 347 346 347 344 343 340 338 334 329 330 347 342 341 338 324 317 299 288 284 276 266
185 176 171 166 163 169 156 141 125 109 103 118 167 186 186 262 297 311 309 335 344 347 348 351 348 348 347 346 343 339 332 328 325 324 317 309 308 310 310 311 294 288 284
171 168 167 168 163 158 152 131 96 68 66 79 72 113 191 214 313 277 298 331 341 349 353 353 351 351 351 350 346 341 336 331 326 322 318 313 308 305 302 302 302 300 296
169 169 170 165 161 153 132 105 64 37 33 38 39 37 23 4 354 310 318 333 350 353 355 355 353 353 351 349 346 342 339 335 330 324 320 316 312 309 304 302 304 301 302
170 169 168 164 161 140 106 51 36 32 32 30 30 34 19 4 348 338 332 334 339 351 353 354 352 351 347 344 342 339 337 334 331 327 322 318 313 309 306 308 305 303 305
173 173 171 167 155 127 68 40 28 21 17 13 18 17 12 5 350 344 334 332 336 343 348 349 347 347 345 343 341 337 335 333 330 327 325 321 316 312 307 305 310 307 304
179 176 173 172 168 159 76 26 21 9 12 7 3 359 357 350 342 339 333 333 332 334 339 342 343 342 342 340 338 336 334 331 328 326 324 322 318 313 309 309 309 309 307
182 181 180 181 183 174 93 32 16 2 6 4 358 354 346 342 338 333 332 331 332 329 330 337 337 338 338 336 336 333 331 330 328 327 324 322 319 314 316 312 307 304 304
189 186 188 193 188 196 201 266 348 355 2 0 349 342 334 335 333 327 326 327 328 322 322 329 329 331 332 333 333 332 330 328 328 327 324 321 319 318 315 313 308 305 301
195 197 199 197 204 207 211 225 305 348 351 354 345 342 336 331 321 318 318 319 319 315 311 316 322 324 327 328 328 328 328 327 326 326 325 323 320 317 316 314 312 307 303
204 207 206 206 209 212 215 224 241 329 336 342 342 339 334 323 316 313 313 311 310 309 307 309 315 319 321 322 323 324 327 326 326 325 325 324 318 315 313 311 309 307 304
211 212 212 213 217 217 221 225 238 294 307 318 331 334 329 323 316 314 310 309 307 306 306 307 311 315 316 320 323 326 328 328 329 328 326 318 318 313 311 310 305 302 301
214 214 215 220 222 224 228 232 245 263 282 300 313 314 314 320 321 316 310 308 306 305 305 304 306 311 315 321 324 327 329 327 326 326 325 323 317 313 311 311 304 300 298
217 217 219 222 223 227 234 241 249 267 274 290 294 297 304 311 317 314 310 306 303 302 302 303 305 310 315 324 327 325 324 325 324 326 325 320 313 310 309 309 305 302 301
220 221 223 224 226 230 239 245 257 268 272 278 282 289 294 303 307 307 305 303 302 303 303 304 304 312 318 322 324 323 322 323 321 321 319 319 318 317 319 312 315 312 309
222 224 227 228 231 238 242 250 264 267 273 277 281 284 289 294 298 301 302 301 300 300 300 302 305 309 313 318 322 322 315 317 320 325 322 319 322 320 319 319 312 306 304
229 230 233 235 235 240 245 258 264 266 274 278 281 283 284 287 292 297 299 297 297 296 294 294 296 304 313 319 318 313 316 315 315 320 321 320 322 312 314 311 306 305 304
234 237 242 240 242 243 251 262 264 270 273 278 279 280 282 286 292 297 299 298 298 294 295 300 302 306 312 309 306 310 310 312 311 319 327 314 327 321 313 310 314 314 309
240 250 244 243 245 248 257 263 266 272 276 278 278 280 281 285 293 293 294 296 297 296 299 297 292 297 304 308 309 308 313 315 319 322 331 325 324 320 320 320 327 321 310
248 246 247 247 248 252 256 261 265 270 275 278 279 281 284 289 291 289 290 293 294 297 296 292 293 304 306 308 308 307 313 317 321 321 321 323 323 323 320 321 313 318 320